Miscellaneous Local Product
Issued by NWS Hastings, NE

Home | Current Version | Previous Version | Text Only | Print | Product List | Glossary Off
Versions: 1 2 3 4 5 6 7 8 9 10 11 12 13 14 15 16 17 18 19 20 21 22 23 24 25 26 27 28 29 30 31 32 33 34 35 36 37 38 39 40 41 42 43 44 45 46 47 48 49 50

000
AXUS43 KGID 190902
MISGRI

GID CWA HOURLY WEATHER ROUNDUP
NATIONAL WEATHER SERVICE HASTINGS NE
400 AM CDT SUN APR 19 2015

NOTE: "FAIR" INDICATES FEW OR NO CLOUDS BELOW 12,000 FEET WITH NO
SIGNIFICANT WEATHER AND/OR OBSTRUCTIONS TO VISIBILITY.

...SOUTH CENTRAL NEBRASKA...

CITY           SKY/WX    TMP DP  RH WIND       PRES   REMARKS
GRAND ISLAND   CLOUDY    52  47  83 W9        29.76F
HASTINGS       CLOUDY    52  48  86 NW7       29.76F
KEARNEY        CLOUDY    52  46  82 NW6       29.79F
ORD            CLOUDY    52  48  86 NW17      29.78F
YORK           CLOUDY    52  48  87 N3        29.77S
AURORA         CLOUDY    53  50  92 NW5       29.77S
LEXINGTON      CLOUDY    52  49  90 NW9       29.81S
HOLDREGE       CLOUDY    51  47  87 CALM      29.79S
HEBRON         CLOUDY    52  50  92 N3        29.76S

...NEBRASKA PANHANDLE...

CITY           SKY/WX    TMP DP  RH WIND       PRES   REMARKS
CHADRON        MOCLDY    44  34  67 N9        30.04R
ALLIANCE       CLOUDY    42  36  79 N23G32    29.97S
SCOTTSBLUFF    CLOUDY    44 N/A N/A NW22G30   30.03R
SIDNEY         LGT RAIN  42  38  85 N24G39    29.97R

...WESTERN AND NORTH CENTRAL NEBRASKA...

CITY           SKY/WX    TMP DP  RH WIND       PRES   REMARKS
VALENTINE      CLOUDY    46  44  93 N15       29.90R
AINSWORTH      CLOUDY    47  45  94 N17G23    29.88R
ONEILL         CLOUDY    51  49  92 NW17G23   29.82S
BROKEN BOW     CLOUDY    53  46  77 N15       29.80S
IMPERIAL       LGT RAIN  47  44  90 N10       29.88S
NORTH PLATTE   LGT RAIN  49  46  90 NW14      29.85F
MCCOOK         CLOUDY    51  46  83 N16       29.82F

...EASTERN NEBRASKA...

CITY           SKY/WX    TMP DP  RH WIND       PRES   REMARKS
NORFOLK        NOT AVBL
SO SIOUX CITY  FOG       54  53  97 SE6       29.73F VSB 1/4
TEKAMAH        CLOUDY    56  55  97 CALM      29.73F FOG
COLUMBUS       CLOUDY    54  45  71 NW9       29.76F
ALBION         CLOUDY    53  47  80 NW10      29.77F
OMAHA EPPLEY   CLOUDY    56  55  97 SE6       29.74F
OFFUTT AFB     FOG       56  56  99 E5        29.73F VSB 1/4
MILLARD        CLOUDY    58  56  96 CALM      29.74F FOG
LINCOLN        CLOUDY    56  51  84 NW5       29.76S
NEBRASKA CITY  FOG       56  56 100 CALM      29.74F VSB 1/4
BEATRICE       LGT RAIN  53  52  97 W7        29.75S
FALLS CITY     MOCLDY    52  50  93 SE3       29.73F

...NORTHERN KANSAS...

CITY           SKY/WX    TMP DP  RH WIND       PRES   REMARKS
GOODLAND       LGT RAIN  45  43  93 N9        29.86R
HILL CITY      CLOUDY    51  47  86 N7        29.78S
NORTON         CLOUDY    50  45  81 NW12      29.79F
PHILLIPSBURG   CLOUDY    55  48  76 N12       29.79R
SMITH CENTER   CLOUDY    50  48  93 NW7       29.79R
BELOIT         CLOUDY    48  48 100 CALM      29.75R
HAYS           MOCLDY    46  39  76 NE7       29.75S
RUSSELL        CLOUDY    48  47  96 N6        29.74S
CONCORDIA      CLOUDY    52  52 100 CALM      29.74R
SALINA         CLOUDY    53  50  89 SE5       29.76S
TOPEKA         CLOUDY    55  53  93 S3        29.78F



USA.gov is the U.S. government's official web portal to all federal, state and local government web resources and services.